Preview of NWS' New Version of Forecast
This preview is not operational and should not be used for support decisions.

Regional Weather Roundup (RWR)

Issued by National Weather Service (NWS)

                            
000
ASUS44 KMEG 192310
RWRTN 
TENNESSEE HOURLY STATE WEATHER ROUNDUP
NATIONAL WEATHER SERVICE MEMPHIS TN
600 PM CDT MON AUG 19 2019

TNZ002-004-019-021-049-052-054-088>092-200000-
WEST TENNESSEE
  
CITY           SKY/WX    TMP DP  RH WIND       PRES   REMARKS
MEMPHIS INTL   PTSUNNY   93  74  53 E6        29.97S HX 103           
NWS MEMPHIS      N/A     94 N/A N/A MISG        N/A                   
JACKSON        FAIR      93  74  53 CALM      29.99F HX 103           
DYERSBURG      FAIR      90  77  65 S3        29.99S HX 103           
SOMERVILLE     SUNNY     91  73  55 CALM      29.98S HX 100           
COVINGTON      SUNNY     90  81  74 CALM      29.97F HX 108           
UNION CITY     SUNNY     90  77  66 CALM      29.96S HX 102           
BOLIVAR        SUNNY     91  72  52 CALM      29.99S HX  98           
PARIS          SUNNY     93  72  49 CALM      29.98S HX 100           
HUNTINGDON     MOSUNNY   93  73  52 CALM      29.97F HX 102           
LEXINGTON      SUNNY     91  72  52 CALM      29.98S HX  98           
SAVANNAH       SUNNY     91  75  59 N5        29.98S HX 102           
$$

TNZ008-025-027-028-033-062-065-066-200000-
NORTH MIDDLE TENNESSEE
  
CITY           SKY/WX    TMP DP  RH WIND       PRES   REMARKS
NASHVILLE      FAIR      93  62  35 E6        30.00F HX  93           
DICKSON        CLEAR     91  70  49 SE6       29.99F HX  97           
PORTLAND       SUNNY     93  68  43 CALM      30.00S HX  97           
CLARKSVILLE    FAIR      94  71  47 NE3       29.98F HX 101           
LEBANON        CLEAR     93  66  40 E6        29.97F HX  96           
SMYRNA         FAIR      94  68  42 VRB3      30.00F HX  98           
MURFREESBORO   CLEAR     93  68  43 NE6       29.98S HX  97           
COOKEVILLE     SUNNY     91  72  52 CALM      30.02S HX  98           
LIVINGSTON     CLEAR     90  66  45 NW3       30.03F HX  92           
GALLATIN       CLEAR     93  64  38 CALM      30.02S HX  95           
CROSSVILLE     TSTM      73  63  70 NE8       30.10S                  
ROCKWOOD       CLEAR     82  70  65 CALM      30.06S                  
$$

TNZ061-075-076-078-094-096-097-200000-
SOUTH MIDDLE TENNESSEE
  
CITY           SKY/WX    TMP DP  RH WIND       PRES   REMARKS
LAWRENCEBURG   CLEAR     90  75  62 CALM      30.00F HX 100           
LEWISBURG      CLEAR     91  72  52 CALM      29.99F HX  98           
FAYETTEVILLE   SUNNY     88  72  58 SE6       30.00F HX  94           
TULLAHOMA      CLOUDY    84  68  58 SE13      30.04R                  
WINCHESTER     SUNNY     79  68  69 E3        30.03S                  
MCMINNVILLE    SUNNY     88  73  62 NE5       30.02S HX  96           
COLUMBIA       SUNNY     93  72  49 CALM      29.98S HX 100           
SHELBYVILLE    SUNNY     91  70  49 CALM      30.00F HX  97           
$$

TNZ017-018-042-046-047-200000-
NORTHEAST TENNESSEE
  
CITY           SKY/WX    TMP DP  RH WIND       PRES   REMARKS
TRI CITIES     PTSUNNY   86  64  47 S7        30.08R                  
ELIZABETHTON   FAIR      82  68  61 CALM      30.08S                  
GREENEVILLE    CLEAR     82  66  57 CALM      30.08S                  
$$

TNZ012-013-036-069-073-074-200000-
CENTRAL EAST TENNESSEE
  
CITY           SKY/WX    TMP DP  RH WIND       PRES   REMARKS
KNOXVILLE      PTSUNNY   89  66  46 SE8       30.02S HX  91           
OAK RIDGE      FAIR      92  68  45 E6        30.04R HX  96           
DOWNTOWN KNOXV PTSUNNY   84  61  45 SE7G16    30.04R                  
GATLINBURG     SUNNY     79  70  73 CALM      30.04S                  
MORRISTOWN     CLOUDY    90  66  45 S8        30.05R HX  92           
JACKSBORO      SUNNY     90  72  55 SW6       30.06F HX  96           
$$

TNZ083-085-099-200000-
SOUTHEAST TENNESSEE
  
CITY           SKY/WX    TMP DP  RH WIND       PRES   REMARKS
CHATTANOOGA    PTSUNNY   83  70  64 SE5       30.04S                  
DAYTON         PTCLDY    86  68  54 VRB6      30.02R                  
$$

SKY/WX REPORTED AS FAIR MEANS FEW OR NO CLOUDS BELOW
12 THOUSAND FEET.